Temperature
18 18 18 18 18 18 18 18 18 18 18 18 18 18 18 18 18 18 18 18 18 18 18 18 18 18 18 18 18 18 18 18 18 18 18 18 18 18 18 18 18 18 18
18 18 18 18 18 18 18 18 18 18 18 18 18 18 18 18 18 18 18 18 18 18 18 18 18 18 18 18 18 18 18 18 18 18 18 18 18 18 18 18 18 18 18
18 18 17 17 18 18 18 18 18 18 18 18 18 18 18 18 18 18 18 18 18 18 18 18 18 18 18 18 18 18 18 18 18 18 18 18 18 18 18 18 18 18 18
18 17 17 17 17 18 18 18 18 18 18 18 18 18 18 18 18 17 17 17 17 17 17 17 17 17 17 17 17 17 17 18 18 18 18 18 18 18 18 18 18 18 18
17 17 17 17 17 17 17 17 17 17 17 17 17 17 17 17 17 17 17 17 17 17 17 17 17 17 17 17 17 17 17 17 17 17 18 18 18 17 18 18 18 18 18
17 17 17 17 17 17 17 17 17 17 17 17 17 17 17 17 17 17 17 17 17 17 17 17 17 17 17 17 17 17 17 17 17 17 17 17 17 17 17 17 17 18 18
17 17 17 17 17 17 17 17 17 17 17 17 17 17 17 17 17 17 17 17 17 17 17 17 17 17 17 17 17 17 17 17 17 17 17 17 17 17 17 17 17 17 17
17 17 17 17 17 17 17 17 17 17 17 17 16 16 16 16 16 16 17 17 17 17 17 17 17 17 17 17 17 17 17 17 17 17 17 17 17 17 17 17 17 17 17
17 17 17 17 17 17 17 17 17 17 16 16 16 16 16 16 16 16 16 16 16 16 16 16 16 16 16 16 16 16 16 17 17 17 17 17 17 17 17 17 17 17 17
17 17 17 17 17 17 17 16 16 16 16 16 16 16 16 16 16 16 16 16 16 16 16 16 16 16 16 16 16 16 16 16 16 17 17 17 17 17 17 17 17 17 17
17 17 17 17 17 17 17 16 16 16 16 16 16 16 16 16 16 16 16 16 16 16 16 16 16 16 16 16 16 16 16 16 16 16 16 16 16 16 16 16 16 17 17
17 17 17 17 17 17 16 16 16 16 16 16 16 16 16 16 16 16 16 16 16 16 16 16 16 16 16 16 16 16 16 16 16 16 16 16 16 16 16 16 16 16 16
17 17 17 17 17 17 17 16 16 16 16 16 16 16 16 16 16 16 16 16 16 16 16 16 16 16 16 16 16 16 16 16 16 16 16 16 16 16 16 16 16 16 16
17 17 17 17 17 17 17 16 16 16 16 16 16 16 16 16 16 16 16 16 16 16 16 16 16 16 16 16 16 16 16 16 16 16 16 16 16 16 16 16 16 16 16
17 17 17 17 17 17 17 16 16 16 16 16 16 16 16 16 16 16 16 16 16 16 16 16 16 16 16 16 16 16 16 16 16 16 16 16 16 15 16 16 16 16 16
17 17 17 17 17 17 17 16 16 16 16 16 16 16 16 16 16 16 16 16 16 16 16 16 16 16 16 16 16 16 16 16 15 15 15 15 15 15 15 15 15 15 16
17 17 17 17 17 17 17 16 16 16 16 16 16 16 16 16 16 16 16 16 16 16 16 16 16 16 16 16 15 15 15 15 15 15 15 15 15 15 15 15 15 15 15
17 17 17 17 17 17 16 16 16 16 16 16 16 16 16 16 16 16 16 16 16 16 16 16 16 16 15 15 15 15 15 15 15 15 15 15 15 15 15 15 15 15 15
17 17 17 17 17 17 16 16 16 16 16 16 16 16 16 16 16 16 16 16 16 16 16 16 15 15 15 15 15 15 15 15 15 15 15 15 15 15 15 15 15 15 15
17 17 17 17 16 16 16 16 16 16 16 16 16 16 16 16 16 16 16 16 16 16 15 15 15 15 15 15 15 15 15 15 15 15 15 15 14 14 14 14 14 14 14
17 17 17 17 16 16 16 16 16 16 16 16 16 16 16 16 16 16 16 16 16 15 15 15 15 15 15 15 15 15 15 15 15 14 14 14 14 14 14 14 14 14 14
17 17 17 17 16 16 16 16 16 16 16 16 16 16 16 16 15 15 15 15 15 15 15 15 15 15 15 15 15 15 14 14 14 14 14 14 14 14 14 14 14 14 14
17 17 17 17 17 16 16 16 16 16 16 16 16 16 15 15 15 15 15 15 15 15 15 15 15 15 15 15 15 15 15 14 14 14 14 14 14 14 14 14 14 14 14
17 17 17 17 17 16 16 16 16 16 16 16 16 16 15 15 15 15 15 15 15 15 15 15 15 15 15 15 15 15 15 15 14 14 14 14 14 14 14 13 13 13 13
18 17 17 17 16 16 16 16 16 16 16 15 15 15 15 15 15 15 15 15 15 15 15 15 15 15 15 15 15 15 15 15 14 14 14 14 14 13 13 13 13 13 13
18 17 17 17 16 16 16 16 16 16 16 15 15 15 15 15 15 15 15 15 15 15 15 15 15 15 15 15 15 14 14 14 14 14 14 14 13 13 13 13 13 13 13
Wind_Speed
2 2 8 9 10 11 12 12 12 13 13 13 13 14 13 13 13 13 13 12 12 12 11 11 11 11 11 10 10 10 10 10 10 9 9 9 9 9 9 9 8 7 9
4 5 9 10 11 11 11 12 12 12 12 12 13 13 13 12 12 12 12 11 11 11 10 10 10 10 10 10 10 10 10 10 10 9 9 9 9 9 8 8 8 7 7
5 7 9 11 11 11 11 11 11 11 12 12 12 12 12 12 12 11 11 11 10 10 10 10 10 10 9 10 10 10 9 9 9 9 9 8 8 9 8 8 7 7 7
6 8 9 11 11 11 10 10 11 11 11 11 12 11 11 11 11 11 11 10 10 10 10 9 9 9 9 9 9 9 9 9 9 9 8 7 6 7 8 7 7 7 7
6 7 10 11 11 11 11 10 11 11 11 11 11 10 11 11 10 10 10 10 10 10 9 9 9 9 8 9 9 8 8 9 9 9 8 7 6 7 7 7 7 6 6
5 7 10 11 11 11 11 10 10 11 10 10 10 10 10 10 10 10 9 9 9 9 9 9 9 8 8 8 8 8 9 9 8 7 7 6 5 6 6 6 6 6 6
5 7 8 10 11 11 10 10 9 10 10 10 10 10 9 9 9 9 9 8 8 8 8 8 8 8 8 8 8 8 9 9 8 7 6 5 5 5 5 5 5 5 5
5 6 7 9 10 10 10 9 9 9 9 9 9 9 8 8 8 8 8 8 8 8 8 8 8 8 8 8 8 8 8 8 7 6 5 4 4 4 4 5 5 5 5
5 5 5 6 7 8 8 8 8 8 8 7 8 7 7 7 7 7 7 7 7 7 7 7 8 8 8 8 8 8 9 9 7 5 4 4 4 4 4 4 4 5 5
5 5 5 5 6 5 5 7 7 7 6 6 6 6 6 6 6 6 6 6 6 6 7 7 7 8 8 8 8 8 9 8 7 6 5 4 4 5 4 4 4 5 5
4 4 4 4 5 5 4 5 6 6 5 5 5 5 5 5 5 5 5 5 5 6 6 7 7 8 8 9 9 9 9 7 6 5 5 4 4 5 5 5 5 4 5
2 2 3 3 3 4 3 4 5 5 5 5 5 5 4 4 4 4 5 6 6 6 7 8 8 8 9 8 8 8 7 7 6 5 5 6 6 6 5 5 5 4 4
2 1 2 2 3 3 3 3 4 4 4 5 4 3 4 4 4 5 5 6 6 7 7 8 8 8 8 7 7 7 6 6 6 6 6 8 8 7 7 6 5 4 4
2 1 2 2 2 3 3 3 3 2 3 3 3 3 4 3 3 3 4 4 5 5 5 6 6 6 7 7 6 6 6 6 6 6 7 9 9 9 9 8 6 4 4
2 1 1 2 2 2 3 2 2 2 2 3 3 3 4 3 2 2 3 4 4 4 4 4 4 5 5 6 6 6 6 6 7 7 8 10 10 10 10 9 8 6 6
3 2 1 2 3 3 3 2 2 2 3 4 4 4 5 5 3 3 3 3 3 4 5 5 5 4 4 5 5 6 6 6 7 8 8 9 10 11 11 10 9 8 7
4 4 3 2 3 3 3 3 3 3 3 3 4 4 5 5 4 4 3 2 3 5 6 6 6 5 4 4 4 5 5 6 7 7 8 8 9 11 12 11 11 10 9
4 4 3 3 4 3 3 3 3 4 3 3 4 4 4 4 5 5 3 3 4 5 5 4 3 4 4 4 4 4 4 5 6 7 8 9 9 9 11 12 12 12 12
6 5 4 3 4 4 4 4 4 4 4 3 4 4 4 5 6 6 4 4 5 5 4 3 4 3 4 4 4 4 4 4 5 7 7 8 9 9 9 11 13 13 13
5 5 5 4 4 4 4 4 3 3 3 4 4 4 5 5 6 6 5 5 5 4 4 4 4 4 3 3 5 5 5 5 5 5 5 7 8 9 9 9 10 11 13
5 5 5 5 4 4 3 3 2 2 2 2 3 4 5 5 6 6 4 4 4 4 4 4 4 5 3 2 3 4 4 5 6 5 5 5 7 8 9 9 9 9 9
6 6 5 5 5 4 3 3 2 2 2 2 2 4 5 5 5 5 5 3 3 4 4 3 3 3 2 3 3 3 3 4 4 5 4 5 5 7 7 8 8 8 9
6 7 7 6 5 4 4 4 3 3 3 3 3 2 3 4 5 5 5 4 3 3 3 3 3 4 2 2 3 3 3 1 2 3 4 4 4 4 5 6 7 8 8
7 6 6 6 5 5 5 6 5 3 2 1 1 1 3 4 4 4 5 5 4 3 3 2 2 2 3 2 2 2 2 3 2 1 3 4 4 5 5 5 6 7 8
7 6 6 6 5 5 5 6 6 4 3 2 2 3 3 3 4 4 4 4 4 3 3 3 3 3 2 2 2 1 2 2 2 2 0 2 3 3 4 4 5 6 8
5 6 6 6 5 5 5 5 6 6 5 4 3 2 2 2 2 3 4 4 3 3 3 3 3 3 3 3 2 2 2 2 1 2 1 0 1 2 3 4 5 6 7
Wind_Direction
152 154 135 125 119 116 113 108 105 103 102 102 104 105 105 105 103 101 99 96 92 90 90 88 86 85 84 83 83 81 81 82 81 78 77 78 79 81 82 82 81 80 87
141 140 134 127 122 119 115 111 107 106 105 105 105 106 107 105 103 100 98 96 92 90 89 88 85 83 83 81 81 79 78 79 79 73 69 68 74 78 78 79 81 83 84
121 129 132 128 124 121 118 114 110 107 108 106 106 105 106 105 104 100 98 95 92 90 90 89 84 80 78 76 77 74 72 76 77 72 65 58 64 76 77 76 78 82 79
123 126 131 130 126 123 120 116 113 111 111 109 106 104 104 103 103 102 100 97 93 90 88 85 81 77 76 76 76 73 71 74 76 71 60 53 56 75 75 73 74 75 75
116 124 132 132 128 125 121 119 117 113 111 109 107 105 102 102 101 99 98 96 91 88 84 81 78 74 74 75 74 73 73 74 77 70 64 58 57 74 74 71 72 71 68
113 124 131 133 131 127 124 122 118 113 111 110 108 107 103 103 100 98 95 93 90 87 82 77 74 71 72 73 74 72 74 76 75 69 61 57 61 71 74 73 74 71 65
116 121 131 134 131 129 128 125 122 119 116 114 111 108 104 103 100 97 94 91 88 85 81 73 67 66 68 71 72 73 76 81 76 68 54 50 59 69 70 69 71 70 65
115 117 128 138 136 133 131 127 123 119 118 117 114 109 105 102 100 98 93 87 82 78 76 70 65 63 64 67 69 73 76 74 71 66 54 48 57 68 69 72 70 65 63
93 97 100 114 128 130 130 129 124 119 118 115 112 108 102 99 97 94 89 85 78 73 70 68 63 62 63 65 70 72 74 69 66 56 49 46 51 62 66 71 65 60 60
72 77 81 84 84 87 105 124 123 117 113 108 105 101 92 83 80 81 79 78 72 69 67 66 62 62 63 69 73 72 74 66 60 50 37 36 49 59 62 65 66 60 59
71 61 69 71 75 77 85 105 105 102 91 84 82 82 75 61 55 58 64 64 62 62 62 61 63 62 63 68 70 71 69 63 56 42 32 34 49 59 66 63 68 67 64
92 63 75 79 79 68 74 82 84 81 68 60 61 64 65 61 52 56 52 48 46 49 50 55 61 62 65 67 66 69 66 58 50 36 34 42 46 48 54 52 59 68 68
148 126 105 100 94 84 70 75 73 68 59 56 62 71 75 69 55 50 44 32 33 41 44 50 53 57 66 73 73 69 63 56 45 34 32 40 42 41 44 42 46 63 67
120 134 120 111 100 96 91 80 75 65 53 54 56 78 95 82 60 49 45 34 36 42 47 52 56 61 67 71 74 70 63 59 49 37 34 41 40 39 40 40 47 61 65
132 145 136 134 120 103 93 82 84 77 66 65 67 81 106 101 86 66 57 56 51 56 59 59 63 65 68 68 67 69 61 53 48 38 32 40 39 35 32 35 44 53 57
162 168 141 128 128 112 99 87 76 80 84 82 81 91 106 111 108 89 72 64 58 63 69 73 70 70 66 67 61 63 58 51 48 42 37 37 38 37 34 39 44 49 49
170 166 159 143 117 110 98 88 93 91 89 86 86 91 101 108 110 104 89 68 63 78 84 79 73 69 68 66 56 54 52 48 47 43 41 41 39 39 39 43 44 47 47
157 160 165 155 129 116 103 91 84 82 80 79 85 89 98 107 112 105 96 80 84 89 85 79 72 72 63 60 53 45 45 46 44 45 47 45 43 42 40 43 46 45 43
165 162 153 141 131 122 107 92 79 74 73 76 82 88 90 96 107 104 95 89 92 84 74 83 71 83 79 68 64 49 40 39 38 47 46 46 46 47 43 40 44 44 42
158 156 149 136 124 117 103 89 73 64 57 60 69 86 97 100 102 100 92 89 92 82 71 76 81 70 75 75 71 57 43 38 40 40 38 42 44 44 43 43 41 40 39
151 153 152 144 142 129 113 106 98 81 50 43 53 83 99 103 102 98 94 85 85 92 97 100 94 80 58 53 71 46 28 37 42 33 32 38 39 41 45 44 41 38 32
169 166 157 159 157 151 135 123 120 112 85 61 50 66 81 97 102 105 98 92 90 100 93 92 101 96 56 40 92 83 32 10 15 24 28 36 32 39 40 38 38 35 31
178 178 174 169 160 155 142 116 92 68 56 49 40 41 46 86 96 102 103 100 98 105 113 109 114 114 110 42 57 122 128 185 341 1 21 30 27 29 26 30 31 31 29
188 178 168 165 156 151 146 141 137 132 124 128 100 72 53 73 87 99 104 101 97 95 108 118 108 112 122 106 50 53 109 151 139 14 355 8 21 25 16 23 21 20 21
177 168 162 155 149 147 146 147 140 132 129 110 83 79 61 52 67 86 97 99 96 92 100 92 91 98 112 131 128 103 78 64 86 132 9 341 5 9 15 20 19 15 14
160 157 156 153 153 149 144 142 145 146 142 131 112 100 73 54 47 65 86 90 95 97 97 97 99 100 99 105 112 122 136 133 141 129 146 325 347 340 1 14 17 11 15
Height
1527 1528 1530 1531 1532 1533 1534 1534 1535 1535 1536 1536 1537 1537 1538 1539 1539 1540 1541 1541 1542 1542 1543 1543 1544 1544 1545 1545 1545 1546 1546 1546 1546 1547 1547 1547 1547 1548 1548 1548 1548 1548 1549
1528 1529 1531 1532 1533 1534 1535 1535 1536 1537 1537 1537 1538 1538 1539 1540 1541 1541 1542 1542 1543 1544 1544 1545 1545 1546 1546 1546 1547 1547 1547 1548 1548 1548 1548 1549 1549 1549 1549 1549 1550 1550 1550
1529 1530 1531 1532 1534 1535 1536 1537 1537 1538 1538 1539 1539 1540 1540 1541 1542 1542 1543 1544 1544 1545 1546 1546 1546 1547 1547 1547 1548 1548 1549 1549 1549 1549 1550 1550 1550 1551 1551 1551 1551 1551 1551
1530 1531 1532 1534 1535 1536 1537 1538 1538 1539 1539 1540 1540 1541 1542 1542 1543 1544 1544 1545 1546 1546 1547 1547 1548 1548 1548 1549 1549 1549 1550 1550 1550 1551 1551 1551 1551 1552 1552 1552 1552 1552 1552
1531 1532 1533 1535 1536 1537 1538 1539 1539 1540 1540 1541 1542 1542 1543 1544 1544 1545 1546 1546 1547 1548 1548 1549 1549 1549 1549 1550 1550 1550 1551 1551 1552 1552 1552 1552 1553 1553 1553 1553 1553 1553 1553
1532 1533 1534 1536 1537 1538 1539 1540 1541 1541 1542 1542 1543 1544 1544 1545 1546 1546 1547 1548 1548 1549 1549 1550 1550 1550 1550 1551 1551 1551 1552 1553 1553 1553 1553 1554 1554 1554 1554 1554 1554 1554 1554
1533 1535 1535 1537 1538 1539 1540 1541 1542 1543 1543 1544 1544 1545 1546 1546 1547 1547 1548 1549 1549 1550 1550 1551 1551 1552 1552 1552 1552 1552 1553 1554 1554 1554 1555 1555 1555 1555 1555 1555 1555 1555 1555
1534 1536 1537 1538 1539 1540 1541 1542 1543 1544 1545 1545 1546 1546 1547 1548 1548 1549 1549 1550 1550 1551 1551 1552 1552 1553 1553 1553 1553 1553 1554 1555 1555 1555 1555 1556 1556 1555 1555 1555 1555 1555 1555
1536 1537 1538 1539 1540 1541 1542 1543 1544 1545 1546 1547 1547 1548 1548 1549 1549 1550 1551 1551 1552 1552 1553 1553 1554 1554 1554 1554 1554 1555 1555 1555 1556 1556 1556 1556 1556 1556 1556 1556 1556 1556 1556
1537 1538 1539 1540 1542 1543 1543 1545 1546 1547 1548 1548 1549 1549 1550 1550 1551 1551 1552 1553 1553 1554 1554 1555 1555 1556 1556 1556 1556 1556 1556 1557 1557 1557 1557 1557 1557 1557 1556 1556 1555 1556 1556
1538 1539 1541 1542 1543 1544 1545 1546 1547 1548 1549 1550 1550 1551 1551 1552 1552 1553 1554 1554 1555 1555 1556 1556 1557 1557 1557 1557 1557 1558 1558 1558 1558 1558 1558 1558 1557 1557 1556 1556 1556 1555 1555
1539 1541 1542 1543 1544 1546 1547 1548 1549 1550 1551 1551 1552 1552 1553 1554 1555 1555 1555 1556 1557 1557 1558 1558 1558 1558 1559 1559 1559 1559 1559 1559 1559 1559 1559 1558 1558 1557 1557 1556 1556 1556 1556
1541 1542 1544 1545 1546 1547 1548 1550 1551 1552 1553 1553 1554 1554 1555 1556 1556 1557 1557 1558 1558 1559 1559 1559 1559 1560 1560 1560 1561 1560 1560 1560 1560 1560 1559 1559 1558 1557 1557 1556 1556 1556 1556
1542 1544 1545 1547 1548 1549 1550 1551 1552 1553 1554 1555 1555 1556 1557 1557 1558 1559 1559 1559 1560 1560 1560 1560 1560 1561 1562 1562 1562 1562 1562 1561 1561 1561 1560 1559 1559 1558 1557 1556 1555 1555 1555
1544 1545 1547 1548 1549 1550 1552 1553 1554 1555 1555 1556 1557 1558 1558 1559 1559 1560 1560 1561 1561 1561 1561 1561 1562 1562 1563 1563 1563 1563 1563 1563 1562 1562 1561 1560 1559 1558 1556 1555 1555 1555 1555
1545 1547 1548 1549 1551 1552 1553 1554 1555 1556 1556 1557 1558 1559 1559 1560 1561 1561 1561 1562 1562 1562 1562 1563 1563 1563 1564 1564 1564 1564 1564 1564 1563 1563 1562 1561 1560 1558 1556 1555 1555 1555 1555
1546 1548 1549 1551 1552 1553 1554 1555 1556 1557 1558 1558 1559 1560 1561 1561 1562 1562 1562 1563 1563 1563 1563 1564 1564 1564 1564 1565 1565 1565 1565 1565 1564 1564 1563 1562 1561 1559 1558 1556 1556 1556 1556
1546 1548 1550 1552 1553 1554 1555 1556 1557 1558 1558 1559 1560 1561 1561 1562 1562 1563 1563 1563 1564 1564 1564 1565 1565 1565 1565 1566 1566 1566 1566 1566 1565 1565 1564 1563 1562 1561 1559 1558 1557 1557 1556
1547 1548 1550 1552 1553 1555 1556 1557 1558 1558 1559 1560 1561 1562 1562 1563 1563 1564 1564 1564 1565 1565 1565 1565 1566 1566 1566 1567 1567 1567 1567 1567 1566 1566 1565 1565 1564 1562 1561 1560 1558 1558 1557
1547 1549 1550 1552 1554 1555 1556 1557 1558 1559 1560 1561 1562 1562 1563 1563 1564 1564 1565 1565 1565 1566 1566 1566 1566 1567 1567 1567 1567 1567 1567 1568 1567 1567 1566 1566 1565 1564 1563 1561 1560 1559 1558
1546 1548 1550 1552 1554 1555 1556 1557 1559 1560 1561 1561 1562 1563 1563 1564 1565 1565 1565 1566 1566 1566 1567 1567 1567 1567 1568 1568 1568 1568 1568 1568 1568 1568 1567 1567 1566 1565 1564 1563 1562 1560 1559
1545 1547 1550 1552 1553 1555 1556 1557 1559 1560 1561 1562 1563 1563 1564 1565 1565 1566 1566 1566 1567 1567 1567 1568 1568 1568 1568 1569 1569 1569 1569 1570 1569 1569 1568 1568 1567 1566 1565 1564 1563 1561 1560
1544 1546 1549 1551 1553 1555 1556 1557 1559 1560 1561 1562 1563 1564 1565 1565 1566 1566 1567 1567 1567 1568 1568 1568 1569 1569 1569 1569 1570 1570 1570 1569 1569 1570 1569 1568 1568 1567 1566 1565 1563 1562 1560
1543 1546 1548 1550 1552 1554 1556 1557 1558 1560 1561 1562 1563 1564 1565 1566 1566 1567 1567 1568 1568 1568 1569 1569 1569 1569 1570 1570 1570 1570 1570 1570 1570 1570 1570 1569 1568 1567 1566 1565 1563 1562 1560
1542 1545 1547 1550 1552 1553 1555 1557 1558 1559 1561 1562 1563 1564 1565 1566 1566 1567 1567 1568 1568 1569 1569 1569 1570 1570 1570 1570 1570 1570 1570 1570 1570 1570 1569 1569 1568 1567 1566 1565 1563 1561 1559
1541 1543 1546 1548 1551 1553 1555 1556 1558 1559 1560 1562 1563 1564 1565 1566 1566 1567 1568 1568 1569 1569 1569 1569 1570 1570 1570 1570 1570 1570 1570 1570 1570 1569 1569 1568 1568 1567 1566 1565 1563 1560 1557